Location: Haulchin
(50.3172°N, 3.4360°E)
Time: 01:24:48
(UTC+00:00)

Cosmos 1697 Rocket - Pass Details

Date: 23 May 2024
Orbit: 833 x 842 km, 71.0° (Epoch: 16 June)

Event Time Altitude Azimuth Distance (km) Brightness Sun altitude
Rises 00:57:27 0° 320° (NW) 3,398 6.3 -17.2°
Reaches altitude 10° 01:00:34 10° 303° (WNW) 2,457 5.3 -17.0°
Maximum altitude 01:04:21 19° 260° (W) 1,905 4.3 -16.8°
Enters shadow 01:05:41 17° 242° (WSW) 1,980 4.2 -16.7°
